Miscellaneous Local Product
Issued by NWS Hastings, NE

Home | Current Version | Previous Version | Graphics & Text | Print | Product List | Glossary On
Versions: 1 2 3 4 5 6 7 8 9 10 11 12 13 14 15 16 17 18 19 20 21 22 23 24 25 26 27 28 29 30 31 32 33 34 35 36 37 38 39 40 41 42 43 44 45 46 47 48 49 50
001
AXUS43 KGID 272102
MISGRI

GID CWA HOURLY WEATHER ROUNDUP
NATIONAL WEATHER SERVICE HASTINGS NE
400 PM CDT WED APR 27 2016

NOTE: "FAIR" INDICATES FEW OR NO CLOUDS BELOW 12,000 FEET WITH NO
SIGNIFICANT WEATHER AND/OR OBSTRUCTIONS TO VISIBILITY.

...SOUTH CENTRAL NEBRASKA...

CITY           SKY/WX    TMP DP  RH WIND       PRES   REMARKS
GRAND ISLAND   LGT RAIN  44  42  93 NW31G39   29.45R FOG
HASTINGS       LGT RAIN  42  39  89 W26G38    29.52R FOG
KEARNEY        CLOUDY    41  36  81 NW24G39   29.57R
ORD            CLOUDY    42  39  89 NW22G35   29.53R
YORK           CLOUDY    50  46  87 SW20G26   29.46R
AURORA         CLOUDY    48  47  94 W29G37    29.43R
LEXINGTON      CLOUDY    43  37  79 NW32G38   29.64R
HOLDREGE       CLOUDY    43  37  78 NW29G38   29.61R
HEBRON         LGT RAIN  45  44  95 W14G24    29.56S

...NEBRASKA PANHANDLE...

CITY           SKY/WX    TMP DP  RH WIND       PRES   REMARKS
CHADRON        CLOUDY    41  37  86 NE15      29.78S
ALLIANCE       CLOUDY    44  37  76 N22       29.73R
SCOTTSBLUFF    CLOUDY    48  31  51 NW26G35   29.79R
SIDNEY         CLOUDY    49  30  48 NW25G36   29.76F

...WESTERN AND NORTH CENTRAL NEBRASKA...

CITY           SKY/WX    TMP DP  RH WIND       PRES   REMARKS
VALENTINE      CLOUDY    35  32  88 NW15G25   29.70R WCI  25
AINSWORTH      CLOUDY    37  36  96 NW20      29.65F WCI  26
ONEILL         CLOUDY    43  41  94 N14       29.57R FOG
BROKEN BOW     LGT RAIN  38  36  92 NW24G31   29.61R WCI  27
IMPERIAL       CLOUDY    48  36  63 N22G33    29.72S
NORTH PLATTE   CLOUDY    43  36  76 NW21G29   29.70R
MCCOOK         CLOUDY    49  35  58 N36G44    29.69R

...EASTERN NEBRASKA...

CITY           SKY/WX    TMP DP  RH WIND       PRES   REMARKS
NORFOLK        CLOUDY    50  48  93 E15       29.49R
SO SIOUX CITY  CLOUDY    51  46  83 E16G25    29.56R
TEKAMAH        PTSUNNY   58  54  86 SE21      29.52S
COLUMBUS       PTSUNNY   57  45  62 SE21G29   29.48S
ALBION         CLOUDY    53  51  94 NE13      29.47S
OMAHA EPPLEY   TSTM      60  55  83 E17       29.50R
OFFUTT AFB     TSTM      54  52  94 VRB1      29.49R
MILLARD        CLOUDY    60  56  88 SE7       29.49R
LINCOLN        CLOUDY    56  44  64 SW26G35   29.50R
NEBRASKA CITY  CLOUDY    64  50  60 SW20G25   29.48S THUNDER
BEATRICE       LGT RAIN  47  44  89 SW17G28   29.54S
FALLS CITY     RAIN      59  53  80 SW23G36   29.51R

...NORTHERN KANSAS...

CITY           SKY/WX    TMP DP  RH WIND       PRES   REMARKS
GOODLAND       PTSUNNY   56  34  43 NW23G35   29.73S
HILL CITY      CLOUDY    54  37  52 NW28G40   29.69R
NORTON         MOCLDY    50  37  62 NW32G39   29.65F
PHILLIPSBURG   MOSUNNY   52  39  62 W22G38    29.64R
SMITH CENTER   PTSUNNY   46  39  76 W24G35    29.63S
BELOIT         CLOUDY    48  43  81 W15G24    29.62S
HAYS           CLOUDY    55  37  50 NW24G32   29.67S
RUSSELL        CLOUDY    57  41  55 NW24G31   29.64S
CONCORDIA      CLOUDY    47  42  83 W18       29.61R
SALINA         CLOUDY    61  45  55 NW18G28   29.62S
TOPEKA         CLOUDY    61  50  67 W18G29    29.56R



USA.gov is the U.S. government's official web portal to all federal, state and local government web resources and services.